Flag for Canada Weather past 2 weeks in Gatineau, Quebec, Canada

Now
18 °F

Clear.


Feels Like: 3 °F
Forecast: -1 / 24 °F
Wind: 16 mph from South

Location: Ottawa Int'L. Ont.

Current Time: Feb 28, 2015 at 7:50:35 PM

Latest Report: Feb 28, 2015 at 7:00 PM


Visibility: 15 mi

Pressure: 30.66 "Hg

Humidity: 79%

Dew point: 12 °F

Location of GatineauLocation

Historic Weather in Gatineau — Graph

°F

Gatineau temperature yesterday

Maximum temperature yesterday: 18 °F (at 3:00 PM)
Minimum temperature yesterday: -11 °F (at 6:00 AM)
Average temperature yesterday: 3 °F

Past Weeks' High & Low Weather Summary

 TemperatureHumidityPressure
High25 °F (Feb 22, 1:00 PM)93% (Feb 22, 8:00 PM)30.74 "Hg (Feb 22, 8:00 PM)
Low-15 °F (Feb 16, 5:00 AM)32% (Feb 27, 3:00 PM)29.60 "Hg (Feb 25, 5:00 AM)
Average2 °F65%30.09 "Hg
* Reported Feb 13 7:00 PM — Feb 28 7:00 PM, Gatineau, Weather by CustomWeather, © 2015

Note: Actual official high and low records may vary slightly from our data, if they occured in-between our weather recording intervals... More about our weather records

Advertising

Gatineau weather history for previous 24 hours

 ConditionsComfort  
Time TempWeatherWind HumidityBarometerVisibility
7:00 PM
Sat, Feb 28
18 °FClear.16 mph79%30.66 "Hg15 mi
6:00 PM18 °FClear.12 mph62%30.65 "Hg15 mi
5:00 PM19 °FSunny.14 mph58%30.65 "Hg15 mi
4:00 PM23 °FSunny.15 mph46%30.66 "Hg15 mi
3:00 PM23 °FPassing clouds.16 mph42%30.66 "Hg15 mi
2:00 PM21 °FPassing clouds.15 mph49%30.68 "Hg15 mi
1:00 PM19 °FPassing clouds.10 mph53%30.70 "Hg15 mi
12:00 PM18 °FPassing clouds.9 mph53%30.72 "Hg15 mi
11:00 AM14 °FScattered clouds.10 mph57%30.73 "Hg15 mi
10:00 AM10 °FSunny.8 mph67%30.74 "Hg15 mi
9:00 AM5 °FSunny.12 mph72%30.73 "Hg15 mi
8:00 AM1 °FSunny.10 mph71%30.71 "Hg15 mi
7:00 AM-2 °FSunny.9 mph77%30.69 "Hg15 mi
6:00 AM-2 °FClear.10 mph84%30.68 "Hg15 mi
5:00 AM-2 °FClear.9 mph84%30.66 "Hg15 mi
4:00 AM0 °FClear.7 mph71%30.63 "Hg15 mi
3:00 AM0 °FPassing clouds.9 mph71%30.62 "Hg15 mi
2:00 AM1 °FClear.7 mph65%30.61 "Hg15 mi
1:00 AM1 °FClear.7 mph71%30.59 "Hg15 mi
12:00 AM3 °FClear.6 mph66%30.58 "Hg15 mi
11:00 PM
Fri, Feb 27
5 °FClear.9 mph66%30.55 "Hg15 mi
10:00 PM7 °FClear.7 mph61%30.53 "Hg15 mi
9:00 PM9 °FClear.8 mph56%30.50 "Hg15 mi
8:00 PM9 °FClear.9 mph51%30.48 "Hg15 mi
7:00 PM10 °FClear.7 mph47%30.47 "Hg15 mi
Weather by CustomWeather, © 2015

See weather overviewHow to use our weather pages